• In India
  • List of Countries
  • For 7 days
  • Water Temperature
  • Satellite Maps
  • Weather Map
  • Weather Widgets
  • user-avatar
    Login

    Hourly Weather Ischgl

    Today, 16 January, Tuesday

    Time Temperature Precipitation Wind Pressure Humidity
    00:00 -14°C° 0.2 mm 4 mps 565 mmHg 85%
    01:00 -14°C° 0 mm 4 mps 565 mmHg 86%
    02:00 -14°C° 0.2 mm 4 mps 564 mmHg 86%
    03:00 -14°C° 0.2 mm 4 mps 564 mmHg 87%
    04:00 -14°C° 0.2 mm 4 mps 563 mmHg 87%
    05:00 -12°C° 0.4 mm 4 mps 563 mmHg 88%
    06:00 -12°C° 0.4 mm 3 mps 563 mmHg 88%
    07:00 -12°C° 0 mm 3 mps 563 mmHg 88%
    08:00 -10°C° 0.4 mm 3 mps 563 mmHg 88%
    09:00 -9°C° 0.4 mm 3 mps 563 mmHg 88%
    10:00 -9°C° 0.4 mm 3 mps 563 mmHg 88%
    11:00 -9°C° 0.3 mm 4 mps 563 mmHg 87%
    12:00 -8°C° 0.3 mm 4 mps 563 mmHg 87%
    13:00 -7°C° 0.3 mm 4 mps 563 mmHg 86%
    14:00 -8°C° 0.6 mm 4 mps 563 mmHg 87%
    15:00 -7°C° 0.6 mm 3 mps 563 mmHg 88%
    16:00 -7°C° 0.6 mm 3 mps 562 mmHg 89%
    17:00 -7°C° 0.6 mm 3 mps 562 mmHg 90%
    18:00 -8°C° 0.6 mm 3 mps 562 mmHg 90%
    19:00 -8°C° 0.6 mm 3 mps 562 mmHg 91%
    20:00 -8°C° 1 mm 3 mps 561 mmHg 91%
    21:00 -8°C° 1 mm 3 mps 561 mmHg 92%
    22:00 -8°C° 1 mm 3 mps 561 mmHg 92%
    23:00 -8°C° 0.7 mm 3 mps 561 mmHg 92%

    Tomorrow, 17 January, Wednesday

    Time Temperature Precipitation Wind Pressure Humidity
    00:00 -9°C° 0.7 mm 3 mps 560 mmHg 92%
    01:00 -9°C° 0.7 mm 3 mps 560 mmHg 92%
    02:00 -9°C° 1.2 mm 3 mps 559 mmHg 93%
    03:00 -9°C° 1.2 mm 3 mps 559 mmHg 94%
    04:00 -10°C° 1.2 mm 3 mps 559 mmHg 94%
    05:00 -11°C° 1.2 mm 4 mps 558 mmHg 94%
    06:00 -12°C° 1.2 mm 4 mps 558 mmHg 94%
    07:00 -14°C° 1.2 mm 4 mps 558 mmHg 94%
    08:00 -14°C° 1 mm 4 mps 558 mmHg 94%
    09:00 -15°C° 1 mm 5 mps 559 mmHg 94%
    10:00 -15°C° 1 mm 5 mps 559 mmHg 94%
    11:00 -17°C° 0.7 mm 6 mps 559 mmHg 93%
    12:00 -18°C° 0.7 mm 7 mps 560 mmHg 92%
    13:00 -19°C° 0.7 mm 7 mps 560 mmHg 92%
    14:00 -19°C° 0.5 mm 7 mps 561 mmHg 91%
    15:00 -19°C° 0.5 mm 7 mps 561 mmHg 91%
    16:00 -19°C° 0.5 mm 7 mps 562 mmHg 91%
    17:00 -18°C° 0.7 mm 6 mps 562 mmHg 92%
    18:00 -18°C° 0.7 mm 6 mps 563 mmHg 93%
    19:00 -18°C° 0.7 mm 5 mps 563 mmHg 94%
    20:00 -18°C° 0.9 mm 5 mps 564 mmHg 94%
    21:00 -18°C° 0.9 mm 5 mps 564 mmHg 94%
    22:00 -17°C° 0.9 mm 4 mps 565 mmHg 94%
    23:00 -17°C° 0.6 mm 4 mps 565 mmHg 94%

    Day after tomorrow, 18 January, Thursday

    Time Temperature Precipitation Wind Pressure Humidity
    00:00 -17°C° 0.6 mm 4 mps 566 mmHg 93%
    01:00 -16°C° 0.6 mm 3 mps 566 mmHg 93%
    02:00 -16°C° 0.5 mm 3 mps 566 mmHg 93%
    03:00 -16°C° 0.5 mm 3 mps 566 mmHg 92%
    04:00 -16°C° 0.5 mm 3 mps 566 mmHg 92%
    05:00 -15°C° 0.2 mm 3 mps 566 mmHg 89%
    06:00 -15°C° 0.2 mm 3 mps 565 mmHg 87%
    07:00 -15°C° 0.2 mm 3 mps 565 mmHg 85%
    08:00 -14°C° 0.3 mm 3 mps 566 mmHg 86%
    09:00 -12°C° 0.3 mm 3 mps 566 mmHg 86%
    10:00 -10°C° 0.3 mm 3 mps 566 mmHg 86%
    11:00 -8°C° 0.5 mm 3 mps 566 mmHg 87%
    12:00 -7°C° 0.5 mm 3 mps 567 mmHg 89%
    13:00 -6°C° 0.5 mm 3 mps 567 mmHg 90%
    14:00 -6°C° 0.3 mm 3 mps 566 mmHg 90%
    15:00 -6°C° 0.3 mm 3 mps 566 mmHg 91%
    16:00 -6°C° 0.3 mm 3 mps 566 mmHg 91%
    17:00 -6°C° 0.3 mm 3 mps 565 mmHg 90%
    18:00 -7°C° 0.3 mm 3 mps 565 mmHg 89%
    19:00 -7°C° 0.3 mm 3 mps 564 mmHg 88%
    20:00 -7°C° 0.6 mm 3 mps 564 mmHg 89%
    21:00 -7°C° 0.6 mm 3 mps 564 mmHg 90%
    22:00 -7°C° 0.6 mm 3 mps 564 mmHg 91%
    23:00 -7°C° 0.5 mm 3 mps 564 mmHg 92%

    19 January, Friday

    Time Temperature Precipitation Wind Pressure Humidity
    00:00 -7°C° 0.5 mm 3 mps 564 mmHg 92%
    01:00 -6°C° 0.5 mm 2 mps 564 mmHg 93%
    02:00 -6°C° 0.8 mm 2 mps 564 mmHg 93%
    03:00 -6°C° 0.8 mm 2 mps 564 mmHg 94%
    04:00 -6°C° 0.8 mm 2 mps 563 mmHg 95%
    05:00 -6°C° 0.9 mm 2 mps 564 mmHg 94%
    06:00 -6°C° 0.9 mm 2 mps 564 mmHg 94%
    07:00 -6°C° 0.9 mm 2 mps 564 mmHg 94%
    08:00 -7°C° 0.9 mm 2 mps 564 mmHg 95%
    09:00 -7°C° 0.9 mm 2 mps 564 mmHg 95%
    10:00 -7°C° 0.9 mm 2 mps 564 mmHg 96%
    11:00 -7°C° 0.5 mm 2 mps 564 mmHg 95%
    12:00 -7°C° 0.5 mm 2 mps 563 mmHg 95%
    13:00 -8°C° 0.5 mm 2 mps 563 mmHg 94%
    14:00 -9°C° 0.6 mm 3 mps 563 mmHg 95%
    15:00 -10°C° 0.6 mm 3 mps 562 mmHg 95%
    16:00 -10°C° 0.6 mm 3 mps 562 mmHg 95%
    17:00 -12°C° 0.4 mm 3 mps 562 mmHg 95%
    18:00 -13°C° 0.4 mm 3 mps 562 mmHg 96%
    19:00 -14°C° 0.4 mm 3 mps 561 mmHg 96%
    20:00 -13°C° 0.2 mm 2 mps 561 mmHg 96%
    21:00 -14°C° 0.2 mm 2 mps 561 mmHg 95%
    22:00 -15°C° 0.2 mm 2 mps 560 mmHg 95%
    23:00 -15°C° 0.1 mm 2 mps 560 mmHg 94%

    20 January, Saturday

    Time Temperature Precipitation Wind Pressure Humidity
    00:00 -16°C° 0.1 mm 2 mps 560 mmHg 93%
    01:00 -17°C° 0.1 mm 2 mps 559 mmHg 92%
    02:00 -17°C° 0.1 mm 2 mps 559 mmHg 90%
    03:00 -18°C° 0.1 mm 2 mps 559 mmHg 87%
    04:00 -18°C° 0.1 mm 2 mps 558 mmHg 85%
    05:00 -18°C° 0.2 mm 2 mps 559 mmHg 87%
    06:00 -18°C° 0.2 mm 2 mps 559 mmHg 88%
    07:00 -15°C° 0.2 mm 1 mps 559 mmHg 89%
    08:00 -17°C° 0.2 mm 2 mps 559 mmHg 90%
    09:00 -16°C° 0.2 mm 2 mps 560 mmHg 91%
    10:00 -15°C° 0.2 mm 2 mps 561 mmHg 92%
    11:00 -15°C° 0.3 mm 2 mps 561 mmHg 91%
    12:00 -15°C° 0.3 mm 2 mps 561 mmHg 90%
    13:00 -15°C° 0.3 mm 3 mps 561 mmHg 89%
    14:00 -15°C° 0.3 mm 3 mps 561 mmHg 90%
    15:00 -16°C° 0.3 mm 3 mps 561 mmHg 92%
    16:00 -16°C° 0.3 mm 3 mps 561 mmHg 93%
    17:00 -17°C° 0.3 mm 3 mps 562 mmHg 94%
    18:00 -16°C° 0.3 mm 2 mps 562 mmHg 95%
    19:00 -17°C° 0.3 mm 2 mps 562 mmHg 96%
    20:00 -18°C° 0.1 mm 2 mps 562 mmHg 96%
    21:00 -18°C° 0.1 mm 2 mps 563 mmHg 95%
    22:00 -19°C° 0.1 mm 2 mps 563 mmHg 95%
    23:00 -20°C° 0 mm 2 mps 562 mmHg 95%

    21 January, Sunday

    Time Temperature Precipitation Wind Pressure Humidity
    00:00 -21°C° 0 mm 2 mps 562 mmHg 94%
    01:00 -23°C° 0 mm 2 mps 561 mmHg 94%
    02:00 -24°C° 0 mm 2 mps 561 mmHg 93%
    03:00 -24°C° 0 mm 2 mps 561 mmHg 92%
    04:00 -25°C° 0 mm 2 mps 561 mmHg 91%
    05:00 -25°C° 0 mm 2 mps 561 mmHg 89%
    06:00 -25°C° 0 mm 2 mps 561 mmHg 88%
    07:00 -24°C° 0 mm 2 mps 562 mmHg 86%
    08:00 -23°C° 0 mm 2 mps 563 mmHg 86%
    09:00 -20°C° 0 mm 2 mps 564 mmHg 86%
    10:00 -19°C° 0 mm 2 mps 565 mmHg 86%
    11:00 -17°C° 0.1 mm 2 mps 566 mmHg 85%
    12:00 -16°C° 0.1 mm 2 mps 566 mmHg 84%
    13:00 -15°C° 0.1 mm 2 mps 566 mmHg 82%
    14:00 -16°C° 0.1 mm 2 mps 566 mmHg 85%
    15:00 -16°C° 0.1 mm 2 mps 566 mmHg 88%
    16:00 -16°C° 0.1 mm 2 mps 566 mmHg 91%
    17:00 -18°C° 0 mm 2 mps 566 mmHg 92%
    18:00 -20°C° 0 mm 2 mps 566 mmHg 94%
    19:00 -21°C° 0 mm 2 mps 565 mmHg 95%
    20:00 -23°C° 0 mm 2 mps 565 mmHg 94%
    21:00 -23°C° 0 mm 2 mps 565 mmHg 93%
    22:00 -24°C° 0 mm 2 mps 565 mmHg 92%
    23:00 -24°C° 0 mm 2 mps 565 mmHg 90%
    Show more